This demonstration page uses our WeatherBlox Daily Observations layout. Learn more.

Left ArrowRight Arrow

38.88101, -77.10428

Hourly Observations for November 11, 2021

Temp ( °F °C ) Dew Point ( °F °C ) Humidity (%) Winds ( mph kmh ) Pressure ( in mb ) Visibility ( mi km ) Precip ( " mm )
12:52 am 00:52 Mostly Clear 51 10.6 47 8.3 86 86 NNE 5 7 30.24 1024 7 11 0.00 0.00
1:52 am 01:52 Mostly Clear 50 10 46 7.8 86 86 ENE 6 9 30.24 1024 7 11 0.00 0.00
2:52 am 02:52 Mostly Clear 50 10 45 7.2 83 83 NE 9 15 30.23 1024 7 11 0.00 0.00
3:52 am 03:52 Clear 49 9.4 44 6.7 83 83 N 3 6 30.22 1023 10 16 0.00 0.00
4:52 am 04:52 Mostly Clear 49 9.4 43 6.1 80 80 NE 5 7 30.24 1024 10 16 0.00 0.00
5:52 am 05:52 Partly Cloudy 48 8.9 43 6.1 83 83 NE 8 13 30.24 1024 7 11 0.00 0.00
6:52 am 06:52 Mostly Sunny 48 8.9 43 6.1 83 83 NE 6 9 30.24 1024 10 16 0.00 0.00
7:52 am 07:52 Partly Cloudy 50 10 43 6.1 77 77 NE 6 9 30.24 1024 10 16 0.00 0.00
8:52 am 08:52 Mostly Cloudy 53 11.7 44 6.7 72 72 NNE 7 11 30.25 1024 10 16 0.00 0.00
9:52 am 09:52 Mostly Cloudy 58 14.4 47 8.3 67 67 N 5 7 30.24 1024 10 16 0.00 0.00
10:52 am 10:52 Cloudy 63 17.2 52 11.1 68 68 SE 5 7 30.20 1023 10 16 0.00 0.00
11:52 am 11:52 Cloudy 67 19.4 54 12.2 63 63 S 9 15 30.17 1022 10 16 0.00 0.00
12:52 pm 12:52 Cloudy 66 18.9 54 12.2 65 65 SE 13 20 30.14 1021 10 16 0.00 0.00
1:52 pm 13:52 Mostly Cloudy 67 19.4 54 12.2 63 63 SE 9 15 30.13 1020 10 16 0.00 0.00
2:52 pm 14:52 Mostly Cloudy 68 20 55 12.8 63 63 SE 8 13 30.11 1020 10 16 0.00 0.00
3:52 pm 15:52 Mostly Cloudy 67 19.4 55 12.8 66 66 SSE 15 24 30.10 1019 10 16 0.00 0.00
4:52 pm 16:52 Mostly Cloudy 64 17.8 55 12.8 73 73 SE 9 15 30.09 1019 10 16 0.00 0.00
5:52 pm 17:52 Mostly Cloudy 64 17.8 56 13.3 75 75 SSE 9 15 30.09 1019 10 16 0.00 0.00
6:52 pm 18:52 Mostly Cloudy 63 17.2 56 13.3 78 78 S 8 13 30.08 1019 10 16 0.00 0.00
7:52 pm 19:52 Cloudy 63 17.2 56 13.3 78 78 S 6 9 30.07 1018 10 16 0.00 0.00
8:52 pm 20:52 Mostly Cloudy 60 15.6 54 12.2 80 80 SSE 7 11 30.06 1018 10 16 0.00 0.00
9:52 pm 21:52 Mostly Cloudy 60 15.6 53 11.7 78 78 S 9 15 30.04 1017 10 16 0.00 0.00
10:52 pm 22:52 Mostly Cloudy 62 16.7 55 12.8 78 78 SSE 8 13 30.02 1017 10 16 0.00 0.00
11:52 pm 23:52 Cloudy 63 17.2 55 12.8 76 76 SSE 8 13 29.98 1015 10 16 0.00 0.00

Powered by AerisWeather